Regional Weather Roundup
Issued by NWS Wakefield, VA

Home | Current Version | Previous Version | Graphics & Text | Print | Product List | Glossary On
Versions: 1 2 3 4 5 6 7 8 9 10 11 12 13 14 15 16 17 18 19 20 21 22 23 24 25 26 27
000
ASUS41 KAKQ 242015
RWRAKQ

REGIONAL WEATHER ROUNDUP
NATIONAL WEATHER SERVICE WAKEFIELD VA
400 PM EDT SUN SEP 24 2017

Note: "fair" indicates few or no clouds below 12,000 feet with no
significant weather and/or obstructions to visibility. * = Denotes
station may not report precipitation (e.g., rain,snow,etc.),
thunder or fog.

VAZ042-051-052>054-056-242100-
NORTHERN VIRGINIA

CITY           SKY/WX    TMP DP  RH WIND       PRES   REMARKS
WASH NATIONAL  PTSUNNY   91  65  41 E8        30.04F
DULLES         PTSUNNY   88  65  46 E8        30.05F
FORT BELVOIR   MOSUNNY   89  64  42 SE8       30.03F
QUANTICO       SUNNY     88  66  48 E3        30.05F
FREDERICKSBRG* SUNNY     88  63  43 E7        30.03F
STAFFORD*      SUNNY     88  59  36 NE6       30.09S
WARRENTON      MOSUNNY   90  59  34 N7        30.05F
CULPEPER*      SUNNY     89  64  43 NE6       30.05F
MANASSAS*      PTSUNNY   88  67  49 E6        30.05F
LEESBURG*      SUNNY     88  66  48 N6        30.06F
WINCHESTER     MOSUNNY   86  63  45 E6        30.07F
FRONT ROYAL*   CLEAR     86  63  45 E6        30.07
LURAY*         CLEAR     88  57  35 NE7       30.07F
$$

VAZ048-049-060>072-079>083-242100-
CENTRAL AND SOUTH CENTRAL VIRGINIA

CITY           SKY/WX    TMP DP  RH WIND       PRES   REMARKS
RICHMOND       PTSUNNY   88  60  38 E10       30.02F
CHESTERFIELD*  NOT AVBL
PETERSBURG*    SUNNY     88  56  33 E8        30.03F
HANOVER        SUNNY     89  60  37 VRB7      30.04F
TAPPAHANNOCK*  SUNNY     91  41  17 NE7       30.05S
QUINTON*       FAIR      88  61  40 E6        30.02F
CHARLOTTSVILLE SUNNY     89  62  40 NE7       30.06F
GORDONSVILLE*  CLEAR     88  65  46 E8        30.05S
ORANGE*        SUNNY     86  63  45 E8        30.05F
LOUISA*        SUNNY     88  63  42 NE7       30.05F
BUMPASS*       FAIR      87  64  45 E5        30.05F
FARMVILLE*     SUNNY     91  61  36 E8        30.02F
CREWE*         FAIR      87  65  47 NE3       30.03F
FORT PICKETT*  FAIR      87  62  42 E10       30.03F
CHASE CITY*    FAIR      87  61  41 N7        30.03F
CLARKSVILLE*   FAIR      88  59  37 NE6       30.02F
SOUTH HILL*    SUNNY     86  62  44 E5        30.07F
LAWRENCEVILLE* FAIR      86  59  39 MISG      30.02F
EMPORIA*       SUNNY     86  59  39 N7        30.02F
$$

VAZ088>098-242100-
SOUTHEAST VIRGINIA

CITY           SKY/WX    TMP DP  RH WIND       PRES   REMARKS
NORFOLK        SUNNY     81  69  67 NE9       30.02F
VIRGINIA BEACH PTSUNNY   80  66  62 NE10      30.01F
NORFOLK NAVAL  MOSUNNY   81  68  64 NE7       30.03F
WEST POINT*    SUNNY     88  54  31 E8        30.04F
SALUDA*        FAIR      83  64  52 E5        30.03F
NEWPORT NEWS   SUNNY     83  61  47 E12       30.03F
LANGLEY AFB    SUNNY     82  66  56 E9        30.02F
FORT EUSTIS    SUNNY     90  58  34 E7        30.00F
WILLIAMSBURG*  SUNNY     90  63  40 CALM      30.03F
HR EXEC AP*    FAIR      84  62  47 NE9       30.02F
FRANKLIN*      SUNNY     85  62  44 NE12      30.01F
US460-WAKEFLD  SUNNY     86  59  39 NE8       30.02F
$$

VAZ020-022-025-037-045-242100-
WEST CENTRAL AND SOUTHWEST VIRGINIA

CITY           SKY/WX    TMP DP  RH WIND       PRES   REMARKS
STAUNTON*      SUNNY     86  59  39 E7        30.10F
WAYNESBORO*    CLEAR     85  62  46 E5        30.10F
HOT SPRINGS VA CLOUDY    76  52  42 CALM      30.23F
LYNCHBURG      SUNNY     86  59  39 NE6       30.06F
DANVILLE       MOSUNNY   85  60  42 E6        30.03F
SOUTH BOSTON*  FAIR      88  58  36 NE8       30.02F
MARTINSVILLE   SUNNY     86  58  38 NE8       30.08F
ROANOKE        MOSUNNY   87  58  37 N5        30.09F
BLACKSBURG     MOSUNNY   81  55  41 E12       30.16F
DUBLIN*        PTSUNNY   82  53  37 E7        30.14F
MARION*        MOSUNNY   82  49  31 E3        30.17F
HILLSVILLE*    MOSUNNY   78  46  31 CALM      30.15F
RICHLANDS*     FAIR      83  51  32 SE3       30.14F
WISE*          SUNNY     82  50  32 CALM      30.16S
ABINGDON*      SUNNY     86  54  33 E5        30.10F
$$

MDZ021>025-VAZ099-100-242100-
SOUTHERN MARYLAND AND THE DELMARVA PENINSULA

CITY           SKY/WX    TMP DP  RH WIND       PRES   REMARKS
PATUXENT RIVER PTSUNNY   87  65  47 NW5       30.03F
BAY BRIDGE APT SUNNY     84  66  54 N8        30.04F
LEONARDTOWN    SUNNY     84  63  48 CALM      30.06S
DOVER          NOT AVBL
GEORGETOWN     SUNNY     85  60  42 E7        30.04F
EASTON         MOSUNNY   90  63  40 E6        30.07F
CAMBRIDGE      SUNNY     88  64  45 N7        30.03F
SALISBURY      SUNNY     87  62  43 E5        30.03F
OCEAN CITY     SUNNY     78  68  71 SE6       30.05F
WALLOPS ISLAND SUNNY     80  67  64 E8        30.04F
ACCOMACK*      SUNNY     81  62  52 NE7       30.04S
$$

NCZ012>017-030>032-242100-
NORTH CENTRAL AND EASTERN NORTH CAROLINA

CITY           SKY/WX    TMP DP  RH WIND       PRES   REMARKS
ROANOKE RAPIDS FAIR      86  61  42 NE8       30.00F
RALEIGH        PTSUNNY   85  56  37 NE12      30.01F
ELIZABETH CITY SUNNY     84  66  54 NE17      30.00F
AHOSKIE*       SUNNY     85  58  38 NE8       30.00F
EDENTON*       SUNNY     85  70  60 CALM      30.00F
CURRITUCK*     SUNNY     79  68  68 NE9       30.02F
KILL DEVIL HLS MOSUNNY   75  68  77 CALM      29.99F
MANTEO         SUNNY     77  69  76 NE10      30.00S
CAPE HATTERAS  SUNNY     79  68  69 NE13G22   29.97F
TARBORO*       NOT AVBL
GOLDSBORO      PTSUNNY   84  65  53 NE13      29.97F
WASHINGTON     SUNNY     85  65  51 NE7       29.98F
GREENVILLE     SUNNY     86  63  45 NE12      30.00F
NEW BERN       PTSUNNY   84  68  58 NE13      29.97F
WILMINGTON     CLOUDY    84  67  56 NE17      29.94F
$$

VAZ048-242100-
ELSEWHERE

CITY           SKY/WX    TMP DP  RH WIND       PRES   REMARKS
HARRISBURG PA  MOSUNNY   88  72  58 SW3       30.03F
BALTIMORE      PTSUNNY   89  63  41 E6        30.03F
ANNAPOLIS      SUNNY     89  70  53 CALM      30.03F
ANDREWS AFB    SUNNY     86  63  45 SE7       30.04F
PHILADELPHIA   MOSUNNY   91  64  40 E7        30.02F
HENDERSON NC   MOSUNNY   84  56  37 NE10G16   30.02F
GREENSBORO     PTSUNNY   84  59  42 VRB5      30.04F
ROCKY MOUNT    MOSUNNY   87  62  43 NE13      29.99F
$$

VAZ100-242100-
MARINE

STATION/POSITION TIME  TEMP    WIND        PRES    WAVE   SWELL
                       AIR SEA DIR/SP/G            HT/PER HT/PER
                 (UTC) (F)     (DEG/KT/KT) (MB)    (FT/S) (FT/S)
BRANDYWINE LGT   1942   76     180/  9/ 10 1017.7F
CAPE MAY NJ      1942   78 74  100/  7/  8 1016.8F
LEWES DE         1942   79 75  110/  6/  9 1017.1F
15NM E FENWICK I 1950   73 73   CALM  /  2 1017.9F   3/ 7   3/ 7
OCEAN-CITY-INLET 1942   76 74  100/  4/  5 1017.9F
WACHAPREAGUE VA  1942   77 80   60/  6/  8 1017.3F
THOMAS POINT MD  2000   80 77   CALM  /  1   N/A
GOOSES REEF MD   2000   79 78  340/  6/  6 1017.8    0
COVE POINT MD    1942   78     340/  7/  9 1017.8F
SOLOMONS ISLAND  1942   84 78  290/  4/  8 1016.6F
BISHOPS HEAD MD  1942   80 81  290/  9/ 10 1017.2F
PINEY POINT MD   1942          190/  5/  6   N/A
POTOMAC MD       2000   81 78     CALM     1016.2    0
CAMBRIDGE MD     1942   87 79              1017.9F
LEWISETTA VA     1942   80 78  140/  2/  3 1017.0F
RAPPAHANNOCK LGT 1942          350/  6/  6 1017.7F
STINGRAY PT      2000   78 78   40/  6/  6 1017.4    1/ 2
YORK RVR RNG VA  1942   78      70/  7/  8 1017.4F
YORKTOWN VA      1942   78 78   90/  9/ 10 1016.6F
JAMESTOWN VA     2000      79   90/  8/ 12   N/A     0
DOMINION TERM VA 1942   80     100/  4/  9 1016.9F
KIPTOPEKE VA     1942      76   60/  9/ 12   N/A
CHES BAY BRIDGE  1942   75 76   70/ 10/ 11 1016.7F
CAPE HENRY VA    1942   76      60/ 10/ 11   N/A
WILLOUBY STN VA  1942   77      50/  8/  9 1016.8F
S CRANEY ISL VA  1942   80      50/  9/ 12 1016.5F
CAPE HENRY BUOY  2000      76                N/A     3/13   2/13
1ST LANDING BUOY 2000   76 77              1016.7    2/ 3
64NM E OF VA BCH 1950   71 72   20/ 10/ 12 1016.4F   8/14   8/14
DUCK PIER NC     1942   74 77   40/ 15/ 16 1015.5F
44100 DUCK FRF   1935      75                N/A     5/13   3/13
44056 DUCK FRF   2000      76                N/A     4/13   3/13
OREGON INLET NC  1942   75 77   20/ 12/ 16 1015.4F
HATTERAS NC      1942   76 78   30/ 16/ 20 1014.8F
DIAMOND SHLS NC  1950   75 79   20/ 19/ 23 1014.0F  11/15  10/15
CAPE LOOKOUT NC  2000   78      40/ 22/ 25 1013.9F
$$




USA.gov is the U.S. government's official web portal to all federal, state and local government web resources and services.